When you browse on this site, cookies collect data to enhance your experience and personalize the content and advertising you see.
Visit our Privacy Policy to learn more. By continuing to use the site, you agree to this use of cookies and data.
  • In Lithuania
  • List of Countries
  • For 7 days
  • Water Temperature
  • Satellite Maps
  • Weather Map
  • Weather Widgets
  • user-avatar
    Login

    Hourly Weather Quito

    Today, 12 December, Wednesday

    Time Temperature Precipitation Wind Pressure Humidity
    00:00 +16°C° 0 mm 2 mps 622 mmHg 88%
    01:00 +16°C° 0 mm 2 mps 622 mmHg 91%
    02:00 +15°C° 0 mm 2 mps 622 mmHg 92%
    03:00 +15°C° 0 mm 1 mps 622 mmHg 92%
    04:00 +15°C° 0 mm 1 mps 622 mmHg 93%
    05:00 +16°C° 0 mm 1 mps 623 mmHg 89%
    06:00 +18°C° 0 mm 1 mps 623 mmHg 85%
    07:00 +20°C° 0 mm 1 mps 624 mmHg 81%
    08:00 +22°C° 0.2 mm 1 mps 625 mmHg 73%
    09:00 +23°C° 0.2 mm 2 mps 625 mmHg 65%
    10:00 +25°C° 0.2 mm 2 mps 625 mmHg 57%
    11:00 +26°C° 0.2 mm 2 mps 625 mmHg 51%
    12:00 +28°C° 0.2 mm 2 mps 625 mmHg 45%
    13:00 +29°C° 0.2 mm 2 mps 625 mmHg 39%
    14:00 +29°C° 0 mm 1 mps 624 mmHg 41%
    15:00 +29°C° 0 mm 1 mps 624 mmHg 42%
    16:00 +28°C° 0 mm 1 mps 623 mmHg 44%
    17:00 +26°C° 0 mm 1 mps 623 mmHg 50%
    18:00 +23°C° 0 mm 1 mps 622 mmHg 55%
    19:00 +20°C° 0 mm 2 mps 622 mmHg 61%
    20:00 +19°C° 0 mm 2 mps 622 mmHg 65%
    21:00 +19°C° 0 mm 2 mps 622 mmHg 69%
    22:00 +18°C° 0 mm 2 mps 622 mmHg 72%
    23:00 +17°C° 0 mm 2 mps 622 mmHg 77%

    Tomorrow, 13 December, Thursday

    Time Temperature Precipitation Wind Pressure Humidity
    00:00 +17°C° 0 mm 2 mps 622 mmHg 81%
    01:00 +17°C° 0 mm 2 mps 622 mmHg 85%
    02:00 +16°C° 0 mm 2 mps 622 mmHg 88%
    03:00 +16°C° 0 mm 1 mps 622 mmHg 91%
    04:00 +15°C° 0 mm 1 mps 622 mmHg 94%
    05:00 +16°C° 0 mm 1 mps 623 mmHg 90%
    06:00 +18°C° 0 mm 1 mps 624 mmHg 86%
    07:00 +20°C° 0 mm 1 mps 624 mmHg 82%
    08:00 +22°C° 0.1 mm 1 mps 625 mmHg 73%
    09:00 +24°C° 0.1 mm 2 mps 625 mmHg 65%
    10:00 +26°C° 0.1 mm 2 mps 626 mmHg 56%
    11:00 +27°C° 0.1 mm 2 mps 626 mmHg 53%
    12:00 +28°C° 0.1 mm 1 mps 625 mmHg 49%
    13:00 +28°C° 0.1 mm 1 mps 625 mmHg 46%
    14:00 +28°C° 0.1 mm 1 mps 624 mmHg 51%
    15:00 +27°C° 0.1 mm 1 mps 624 mmHg 56%
    16:00 +26°C° 0.1 mm 1 mps 623 mmHg 61%
    17:00 +25°C° 0.2 mm 1 mps 623 mmHg 66%
    18:00 +23°C° 0.2 mm 1 mps 623 mmHg 70%
    19:00 +21°C° 0.2 mm 1 mps 623 mmHg 75%
    20:00 +19°C° 0.6 mm 2 mps 623 mmHg 80%
    21:00 +19°C° 0.6 mm 2 mps 623 mmHg 85%
    22:00 +18°C° 0.6 mm 2 mps 623 mmHg 89%
    23:00 +17°C° 0 mm 2 mps 623 mmHg 90%

    Day after tomorrow, 14 December, Friday

    Time Temperature Precipitation Wind Pressure Humidity
    00:00 +17°C° 0 mm 2 mps 623 mmHg 91%
    01:00 +17°C° 0 mm 2 mps 623 mmHg 92%
    02:00 +18°C° 0.4 mm 1 mps 623 mmHg 93%
    03:00 +16°C° 0.4 mm 1 mps 622 mmHg 94%
    04:00 +16°C° 0.4 mm 1 mps 622 mmHg 95%
    05:00 +18°C° 0 mm 1 mps 623 mmHg 93%
    06:00 +19°C° 0 mm 1 mps 624 mmHg 90%
    07:00 +19°C° 0 mm 1 mps 624 mmHg 88%
    08:00 +21°C° 0.4 mm 1 mps 625 mmHg 79%
    09:00 +23°C° 0.4 mm 2 mps 625 mmHg 70%
    10:00 +25°C° 0.4 mm 2 mps 626 mmHg 61%
    11:00 +26°C° 0.2 mm 2 mps 625 mmHg 56%
    12:00 +27°C° 0.2 mm 2 mps 625 mmHg 50%
    13:00 +28°C° 0.2 mm 2 mps 624 mmHg 45%
    14:00 +28°C° 0 mm 2 mps 624 mmHg 49%
    15:00 +27°C° 0 mm 1 mps 623 mmHg 52%
    16:00 +27°C° 0 mm 1 mps 623 mmHg 55%
    17:00 +25°C° 0 mm 1 mps 623 mmHg 61%
    18:00 +23°C° 0 mm 1 mps 623 mmHg 67%
    19:00 +21°C° 0 mm 1 mps 623 mmHg 73%
    20:00 +20°C° 0.8 mm 1 mps 623 mmHg 79%
    21:00 +19°C° 0.8 mm 1 mps 623 mmHg 84%
    22:00 +18°C° 0.8 mm 1 mps 624 mmHg 89%
    23:00 +17°C° 0.5 mm 2 mps 623 mmHg 91%

    15 December, Saturday

    Time Temperature Precipitation Wind Pressure Humidity
    00:00 +17°C° 0.5 mm 2 mps 623 mmHg 93%
    01:00 +17°C° 0.5 mm 2 mps 623 mmHg 95%
    02:00 +16°C° 0.1 mm 2 mps 622 mmHg 95%
    03:00 +16°C° 0.1 mm 2 mps 622 mmHg 95%
    04:00 +16°C° 0.1 mm 2 mps 622 mmHg 95%
    05:00 +17°C° 0 mm 2 mps 623 mmHg 93%
    06:00 +17°C° 0 mm 2 mps 623 mmHg 91%
    07:00 +18°C° 0 mm 2 mps 624 mmHg 89%
    08:00 +20°C° 0.7 mm 2 mps 625 mmHg 82%
    09:00 +23°C° 0.7 mm 1 mps 625 mmHg 76%
    10:00 +26°C° 0.7 mm 1 mps 626 mmHg 69%
    11:00 +26°C° 0.8 mm 1 mps 625 mmHg 66%
    12:00 +27°C° 0.8 mm 1 mps 625 mmHg 63%
    13:00 +27°C° 0.8 mm 1 mps 624 mmHg 61%
    14:00 +27°C° 0.4 mm 1 mps 624 mmHg 62%
    15:00 +26°C° 0.4 mm 1 mps 623 mmHg 64%
    16:00 +26°C° 0.4 mm 1 mps 623 mmHg 66%
    17:00 +24°C° 0.5 mm 1 mps 623 mmHg 74%
    18:00 +22°C° 0.5 mm 1 mps 623 mmHg 81%
    19:00 +19°C° 0.5 mm 2 mps 622 mmHg 89%
    20:00 +18°C° 0.1 mm 2 mps 623 mmHg 91%
    21:00 +19°C° 0.1 mm 1 mps 623 mmHg 92%
    22:00 +18°C° 0.1 mm 1 mps 623 mmHg 94%
    23:00 +18°C° 0 mm 1 mps 623 mmHg 94%

    16 December, Sunday

    Time Temperature Precipitation Wind Pressure Humidity
    00:00 +18°C° 0 mm 1 mps 623 mmHg 94%
    01:00 +16°C° 0 mm 1 mps 622 mmHg 95%
    02:00 +16°C° 0 mm 1 mps 622 mmHg 96%
    03:00 +16°C° 0 mm 1 mps 622 mmHg 96%
    04:00 +15°C° 0 mm 1 mps 622 mmHg 97%
    05:00 +16°C° 0 mm 1 mps 623 mmHg 94%
    06:00 +18°C° 0 mm 1 mps 623 mmHg 92%
    07:00 +19°C° 0 mm 1 mps 624 mmHg 89%
    08:00 +20°C° 0.5 mm 2 mps 624 mmHg 83%
    09:00 +21°C° 0.5 mm 2 mps 625 mmHg 76%
    10:00 +24°C° 0.5 mm 2 mps 625 mmHg 70%
    11:00 +24°C° 0.9 mm 2 mps 624 mmHg 70%
    12:00 +25°C° 0.9 mm 2 mps 624 mmHg 69%
    13:00 +25°C° 0.9 mm 1 mps 624 mmHg 69%
    14:00 +24°C° 1.5 mm 1 mps 623 mmHg 75%
    15:00 +23°C° 1.5 mm 1 mps 623 mmHg 80%
    16:00 +22°C° 1.5 mm 1 mps 622 mmHg 86%
    17:00 +21°C° 0.3 mm 1 mps 622 mmHg 88%
    18:00 +20°C° 0.3 mm 1 mps 622 mmHg 89%
    19:00 +18°C° 0.3 mm 1 mps 622 mmHg 91%
    20:00 +18°C° 0.1 mm 1 mps 622 mmHg 91%
    21:00 +18°C° 0.1 mm 1 mps 623 mmHg 92%
    22:00 +18°C° 0.1 mm 1 mps 623 mmHg 92%
    23:00 +16°C° 0 mm 1 mps 622 mmHg 93%

    17 December, Monday

    Time Temperature Precipitation Wind Pressure Humidity
    00:00 +16°C° 0 mm 2 mps 622 mmHg 93%
    01:00 +16°C° 0 mm 2 mps 622 mmHg 94%
    02:00 +16°C° 0 mm 2 mps 622 mmHg 93%
    03:00 +16°C° 0 mm 2 mps 622 mmHg 93%
    04:00 +16°C° 0 mm 2 mps 622 mmHg 92%
    05:00 +17°C° 0 mm 2 mps 622 mmHg 91%
    06:00 +17°C° 0 mm 2 mps 623 mmHg 90%
    07:00 +19°C° 0 mm 1 mps 623 mmHg 89%
    08:00 +20°C° 0.4 mm 1 mps 624 mmHg 84%
    09:00 +22°C° 0.4 mm 1 mps 624 mmHg 78%
    10:00 +24°C° 0.4 mm 1 mps 625 mmHg 73%
    11:00 +24°C° 1.2 mm 1 mps 624 mmHg 73%
    12:00 +25°C° 1.2 mm 1 mps 624 mmHg 73%
    13:00 +23°C° 1.2 mm 0 mps 624 mmHg 73%
    14:00 +22°C° 1.6 mm 0 mps 623 mmHg 76%
    15:00 +23°C° 1.6 mm 1 mps 622 mmHg 80%
    16:00 +23°C° 1.6 mm 1 mps 622 mmHg 84%
    17:00 +21°C° 0.3 mm 1 mps 622 mmHg 86%
    18:00 +20°C° 0.3 mm 1 mps 622 mmHg 88%
    19:00 +19°C° 0.3 mm 1 mps 622 mmHg 90%
    20:00 +19°C° 0 mm 1 mps 622 mmHg 91%
    21:00 +17°C° 0 mm 2 mps 622 mmHg 92%
    22:00 +17°C° 0 mm 2 mps 622 mmHg 93%
    23:00 +17°C° 0 mm 2 mps 622 mmHg 93%
    Show more